Wind_Speed
25 25 26 26 26 26 26 26 26 25 26 25 24 24 25 25 25 26 25 25 25 26 25 25 25 24 24 24 23 23 22 22 22 21 21 21 22 22 22 22 21 21 21
27 27 27 28 28 28 28 28 27 26 26 26 26 26 26 26 26 26 27 26 25 25 26 25 25 25 25 25 24 24 23 23 22 22 22 22 22 23 23 23 22 23 23
29 29 29 29 29 30 29 29 29 28 27 26 27 27 27 27 27 26 25 26 25 26 26 26 26 25 25 26 26 25 25 24 23 23 23 23 24 24 25 25 24 24 24
30 31 30 30 30 30 30 30 30 29 28 28 28 29 28 28 28 27 26 26 25 25 26 27 27 26 26 26 26 26 26 25 25 24 23 23 24 25 26 26 25 25 25
31 31 31 30 31 31 31 31 31 31 30 30 30 29 29 28 28 29 28 28 27 27 26 27 27 27 26 27 27 26 25 24 25 26 25 25 25 25 27 27 27 26 27
32 31 31 31 31 31 31 31 31 31 31 30 30 30 29 29 29 29 29 28 27 27 27 27 27 27 27 27 27 26 26 25 25 25 26 26 26 26 26 28 28 28 28
32 32 32 31 31 31 31 31 30 31 31 31 31 31 31 31 30 29 28 28 28 27 27 27 27 27 27 27 27 26 26 26 26 26 26 26 26 26 26 27 28 28 28
31 32 31 31 31 30 30 30 30 31 31 31 31 31 31 31 31 30 29 29 28 28 28 28 28 28 27 26 25 26 26 26 26 26 26 26 26 26 27 27 27 28 28
30 30 30 30 30 30 30 30 29 30 30 30 30 30 30 30 30 30 29 29 29 27 27 28 28 27 27 26 26 26 26 26 26 26 26 26 26 26 26 26 26 27 28
29 29 29 30 31 31 30 30 28 28 28 28 28 29 29 29 28 28 28 27 27 26 26 26 26 26 26 26 26 26 26 26 26 26 25 26 26 26 26 26 26 27 28
29 29 29 30 30 30 29 29 28 28 28 28 27 27 27 28 28 27 27 27 27 27 26 26 26 26 25 25 25 25 25 25 25 25 25 25 26 26 26 25 25 26 27
30 30 30 30 29 28 28 28 27 27 27 27 26 25 25 25 26 26 26 27 26 26 25 24 25 25 25 24 24 23 24 25 25 24 24 24 25 24 25 25 24 24 25
29 28 28 28 28 27 27 27 26 26 26 26 26 25 25 25 25 25 25 25 25 24 24 24 24 24 24 23 23 23 23 24 25 25 24 24 23 23 23 24 23 23 23
28 27 27 26 26 26 25 24 24 24 25 25 25 25 25 25 25 25 25 24 24 24 24 24 24 24 24 23 23 23 23 23 24 24 23 23 22 23 23 23 22 23 23
27 25 24 24 24 24 24 24 24 24 24 24 24 24 24 24 24 25 25 24 24 23 23 23 23 23 23 23 23 23 22 22 22 22 22 23 23 24 23 23 23 24 24
25 24 23 23 22 22 22 22 22 22 22 22 23 23 23 24 23 23 23 23 22 22 22 21 21 21 22 22 22 22 21 21 20 20 21 21 22 24 23 23 24 25 25
24 23 22 21 21 21 22 21 21 21 21 21 21 22 22 22 21 22 22 21 21 21 20 20 21 21 21 21 21 21 22 21 21 20 21 21 22 22 24 24 24 24 24
23 22 21 21 21 21 20 20 19 20 20 19 19 19 20 20 20 21 22 22 21 20 20 20 20 20 20 20 20 20 21 21 21 21 21 21 21 21 22 23 23 24 24
21 21 20 21 20 20 20 19 19 18 19 18 19 18 18 18 19 20 20 21 21 20 20 21 21 20 20 19 19 19 20 20 21 21 21 21 21 20 21 22 22 23 23
20 20 20 20 19 19 19 19 18 18 17 17 17 17 17 17 17 18 19 19 20 21 21 20 20 20 20 19 19 19 19 20 20 20 20 20 20 20 20 21 21 22 22
19 19 19 19 18 18 18 18 18 17 17 16 15 15 15 15 15 15 17 17 18 19 20 20 20 19 19 18 18 19 19 19 20 20 19 19 19 19 20 20 21 22 21
19 18 18 17 17 17 17 17 17 17 16 15 15 14 14 14 14 14 15 15 16 17 18 18 18 19 19 18 18 19 19 19 19 19 19 19 19 19 20 20 21 21 21
19 18 18 17 17 17 17 16 15 16 15 14 14 13 13 13 13 13 13 14 14 15 15 16 17 17 18 18 18 19 19 19 18 18 18 18 18 19 19 19 20 20 21
19 18 17 16 16 16 16 16 16 15 14 14 13 12 12 11 11 11 12 12 13 13 14 15 15 15 16 17 17 17 18 18 18 18 18 18 18 18 18 19 19 19 20
17 17 16 16 15 15 16 16 16 14 13 13 12 11 10 9 9 8 9 9 10 11 12 13 14 15 15 16 16 17 17 18 18 18 18 18 18 18 18 19 19 19 20
16 16 16 15 15 15 15 15 15 14 13 11 11 10 9 9 8 7 7 8 9 10 11 12 13 14 14 15 15 16 17 17 17 18 18 18 18 19 19 20 19 20 21
Wind_Direction
295 294 292 292 292 290 290 287 286 283 280 278 277 274 273 273 274 275 275 275 273 271 267 264 265 264 261 259 258 257 258 257 254 253 251 248 246 245 245 245 245 245 244
295 295 294 292 292 291 289 287 286 282 279 280 279 276 275 273 272 274 275 275 274 271 267 265 265 265 262 258 257 256 256 255 254 253 252 251 250 248 245 245 246 246 244
296 295 293 292 292 291 289 287 285 281 279 279 279 278 276 274 272 272 273 274 274 271 267 266 266 265 263 260 258 256 255 253 253 254 253 254 252 249 247 245 245 245 245
294 294 293 291 290 291 290 287 284 282 279 278 277 277 277 276 273 270 273 273 272 269 267 266 266 265 263 260 259 258 256 255 253 254 253 255 253 250 248 247 247 246 246
296 295 294 292 290 289 291 289 286 282 280 278 277 276 277 277 273 270 272 272 270 269 268 266 266 264 263 260 259 258 255 256 256 256 255 255 253 252 249 249 249 248 247
295 294 293 292 290 289 290 289 286 283 280 278 276 274 275 275 274 273 272 270 269 269 268 266 265 264 262 261 260 258 256 257 258 258 257 255 253 252 250 250 250 250 250
295 292 291 291 290 290 290 289 286 284 281 278 276 274 273 274 273 273 273 271 268 267 266 265 264 263 262 262 261 258 258 259 259 260 259 256 255 253 253 252 252 251 250
297 293 291 290 290 290 290 288 287 285 282 279 277 275 274 273 272 272 271 269 267 267 265 266 264 261 262 260 259 260 261 260 261 261 260 258 256 255 254 253 251 251 249
300 297 294 294 291 290 289 287 287 286 283 279 277 276 274 273 271 270 269 267 266 265 265 266 263 260 260 260 259 261 262 261 260 261 262 258 258 256 253 252 251 250 249
300 298 296 296 295 292 290 288 286 285 283 281 278 276 273 272 270 268 267 266 264 263 263 263 260 259 260 260 260 261 262 261 260 260 260 260 258 256 255 253 252 250 249
301 301 298 297 296 293 289 288 286 284 283 282 280 277 273 270 269 267 265 265 265 264 262 262 260 257 256 258 260 260 260 260 258 258 260 260 258 256 255 254 252 250 250
302 302 301 299 297 292 288 287 285 284 283 281 280 278 274 270 267 265 264 263 263 261 261 261 260 258 256 258 259 260 260 260 259 258 259 260 259 257 255 254 252 249 251
304 303 303 302 298 294 290 288 286 285 281 279 278 276 274 269 266 264 264 261 259 260 260 259 260 260 258 259 260 261 260 259 260 259 258 258 258 257 255 254 254 252 252
308 306 304 303 300 297 294 292 290 286 283 281 279 274 274 269 264 263 262 259 258 257 257 258 258 259 259 260 260 260 259 259 260 259 257 258 257 256 255 254 255 254 252
313 309 306 304 303 300 296 293 291 288 285 283 281 277 274 270 264 261 260 260 259 258 257 257 257 258 259 259 260 261 261 261 260 257 256 256 256 255 256 255 254 254 254
315 312 312 309 306 304 301 297 293 290 290 287 283 278 274 269 265 260 259 260 260 259 257 257 257 258 260 260 261 261 261 260 258 257 257 257 257 255 256 255 254 254 254
314 314 314 312 311 309 305 300 299 296 294 290 286 280 275 271 266 263 259 258 257 258 256 256 257 258 261 262 261 259 258 259 258 258 259 261 261 259 258 257 256 254 255
317 317 314 313 312 311 309 306 304 301 296 293 291 285 280 274 269 265 262 259 257 256 255 255 256 257 259 260 259 257 257 258 258 258 260 262 262 261 261 259 257 257 256
317 317 317 316 314 312 310 311 309 307 302 297 295 288 282 276 272 268 264 260 257 256 255 254 255 256 257 256 257 258 259 260 259 259 260 262 262 260 261 262 262 259 258
320 318 319 318 316 314 313 312 313 311 306 302 298 292 286 281 277 269 263 261 258 256 255 254 254 256 255 257 257 256 258 259 260 261 260 262 264 263 264 264 264 261 260
322 322 322 320 319 317 316 314 313 311 308 307 304 298 292 285 281 274 265 264 261 257 256 254 254 254 255 257 257 258 260 261 262 262 263 264 264 264 265 266 265 265 263
322 322 322 322 320 319 320 317 314 312 310 308 306 303 296 290 285 277 267 265 262 259 258 256 254 254 255 258 260 261 262 261 262 262 263 264 267 266 267 268 267 265 265
323 320 320 322 322 321 323 323 321 320 316 311 308 305 301 297 287 279 272 268 264 260 258 256 256 255 257 258 259 260 261 262 262 262 264 266 268 268 268 269 267 265 264
323 321 320 323 323 323 324 322 322 321 321 317 311 307 304 299 290 282 275 269 263 260 257 257 257 258 260 261 260 259 260 261 262 262 263 264 266 268 268 269 267 265 266
327 324 323 324 323 324 327 327 325 323 322 322 318 314 309 305 301 291 279 271 265 261 259 260 260 263 264 263 261 260 259 260 260 262 263 263 264 266 267 268 266 265 266
328 330 328 326 327 328 331 333 331 330 327 327 326 323 317 312 308 300 290 283 273 265 262 263 263 265 266 264 263 261 259 259 260 261 263 264 265 266 267 267 267 268 269
Height
5853 5851 5849 5848 5847 5845 5843 5842 5841 5841 5840 5840 5839 5839 5839 5838 5838 5838 5838 5838 5838 5838 5838 5839 5839 5840 5840 5841 5842 5843 5844 5844 5845 5847 5848 5849 5850 5852 5853 5855 5856 5858 5859
5847 5845 5843 5842 5840 5839 5838 5836 5835 5834 5834 5833 5833 5833 5833 5833 5832 5832 5831 5832 5832 5832 5832 5833 5833 5834 5835 5836 5836 5837 5838 5839 5840 5841 5843 5844 5845 5847 5848 5850 5851 5853 5854
5841 5839 5837 5835 5834 5832 5831 5830 5828 5827 5827 5826 5826 5826 5826 5826 5826 5825 5825 5826 5825 5825 5826 5827 5827 5828 5828 5829 5831 5832 5833 5834 5835 5836 5837 5838 5840 5841 5843 5845 5846 5848 5849
5835 5833 5831 5828 5827 5825 5824 5822 5821 5820 5820 5819 5819 5819 5819 5819 5819 5819 5819 5819 5819 5820 5820 5821 5821 5822 5822 5823 5824 5826 5827 5828 5829 5830 5831 5833 5834 5835 5837 5839 5840 5842 5843
5829 5826 5824 5822 5820 5818 5816 5815 5813 5813 5812 5812 5811 5812 5812 5812 5812 5813 5813 5813 5813 5813 5814 5814 5815 5816 5816 5817 5818 5819 5821 5822 5823 5824 5825 5826 5828 5829 5831 5832 5834 5836 5837
5822 5819 5817 5815 5812 5810 5809 5807 5806 5805 5804 5804 5803 5804 5804 5804 5804 5805 5805 5806 5806 5806 5807 5807 5808 5809 5810 5811 5812 5813 5814 5815 5816 5817 5818 5820 5821 5823 5824 5826 5827 5829 5831
5815 5812 5810 5808 5805 5803 5801 5799 5798 5797 5796 5795 5796 5796 5797 5796 5796 5797 5798 5798 5799 5799 5800 5801 5802 5803 5803 5804 5805 5806 5807 5808 5809 5811 5812 5813 5814 5816 5817 5819 5821 5822 5824
5808 5805 5803 5800 5798 5795 5793 5792 5790 5789 5788 5787 5787 5788 5789 5790 5789 5790 5790 5791 5792 5792 5793 5794 5795 5796 5797 5798 5799 5800 5801 5802 5803 5804 5805 5806 5807 5809 5811 5812 5814 5816 5817
5800 5797 5795 5793 5790 5788 5786 5784 5782 5781 5779 5778 5778 5779 5780 5781 5781 5782 5782 5783 5784 5785 5786 5787 5787 5789 5790 5792 5793 5794 5795 5796 5796 5797 5798 5799 5801 5802 5803 5805 5807 5809 5811
5794 5790 5788 5785 5783 5780 5778 5776 5775 5773 5772 5771 5770 5770 5771 5772 5773 5774 5775 5776 5777 5778 5778 5779 5781 5782 5783 5785 5786 5787 5788 5789 5790 5791 5791 5792 5794 5795 5797 5798 5800 5802 5804
5787 5784 5781 5778 5775 5773 5770 5768 5767 5765 5764 5763 5763 5763 5763 5764 5765 5766 5768 5769 5769 5770 5771 5773 5774 5775 5777 5778 5779 5780 5781 5782 5783 5784 5785 5786 5787 5788 5790 5792 5793 5795 5797
5781 5777 5774 5770 5767 5765 5763 5761 5759 5758 5757 5756 5756 5755 5756 5756 5757 5758 5759 5761 5762 5763 5764 5766 5767 5769 5770 5771 5773 5774 5775 5776 5777 5778 5779 5780 5781 5782 5784 5785 5787 5789 5791
5774 5771 5767 5764 5761 5758 5756 5754 5752 5750 5749 5749 5748 5748 5748 5749 5749 5751 5752 5753 5754 5756 5758 5759 5760 5762 5763 5765 5766 5767 5768 5769 5771 5772 5773 5774 5775 5776 5778 5779 5781 5782 5784
5768 5765 5761 5758 5754 5752 5749 5747 5745 5744 5742 5742 5741 5741 5741 5741 5742 5744 5745 5746 5748 5749 5751 5753 5754 5755 5757 5758 5760 5761 5762 5763 5764 5765 5767 5768 5769 5771 5772 5773 5774 5776 5778
5763 5759 5755 5752 5749 5746 5743 5741 5739 5737 5736 5735 5734 5734 5734 5734 5735 5736 5738 5739 5741 5742 5744 5746 5747 5749 5750 5752 5753 5755 5756 5757 5758 5759 5761 5762 5763 5764 5766 5767 5768 5770 5772
5758 5754 5750 5747 5744 5741 5738 5735 5733 5732 5730 5729 5727 5727 5727 5727 5728 5729 5731 5732 5734 5736 5738 5740 5741 5742 5744 5746 5747 5749 5750 5751 5752 5754 5755 5756 5757 5758 5760 5761 5762 5764 5765
5753 5749 5746 5742 5739 5736 5733 5731 5728 5726 5725 5723 5721 5721 5721 5721 5721 5722 5724 5725 5727 5729 5731 5733 5735 5736 5738 5740 5741 5743 5744 5746 5747 5748 5749 5750 5751 5752 5753 5754 5755 5757 5758
5749 5745 5742 5738 5735 5732 5729 5726 5723 5721 5719 5717 5716 5715 5715 5715 5715 5716 5717 5719 5721 5723 5725 5727 5729 5730 5732 5734 5735 5737 5738 5740 5741 5742 5743 5744 5745 5746 5747 5748 5749 5750 5751
5745 5742 5738 5735 5731 5728 5725 5722 5719 5717 5714 5713 5711 5710 5710 5709 5709 5710 5711 5713 5715 5717 5719 5721 5723 5725 5726 5728 5730 5731 5733 5734 5735 5736 5737 5738 5739 5740 5740 5742 5742 5743 5744
5742 5738 5735 5731 5728 5725 5721 5718 5715 5713 5711 5709 5707 5706 5705 5705 5705 5705 5706 5707 5709 5711 5713 5715 5717 5719 5721 5722 5724 5725 5727 5728 5730 5730 5731 5732 5733 5734 5734 5735 5736 5737 5738
5739 5735 5732 5728 5725 5722 5718 5715 5712 5710 5708 5706 5704 5702 5702 5701 5701 5701 5702 5703 5704 5706 5707 5709 5712 5714 5716 5717 5718 5720 5721 5722 5723 5724 5726 5727 5728 5728 5728 5729 5729 5730 5731
5736 5732 5729 5726 5722 5719 5715 5712 5710 5707 5705 5703 5701 5699 5698 5698 5698 5697 5697 5698 5699 5701 5703 5704 5707 5709 5710 5712 5713 5714 5715 5717 5718 5719 5720 5721 5722 5722 5722 5723 5723 5723 5724
5733 5730 5726 5723 5720 5716 5713 5710 5707 5705 5702 5700 5698 5697 5696 5695 5694 5694 5694 5695 5696 5697 5699 5700 5702 5703 5705 5706 5708 5709 5710 5711 5712 5713 5714 5715 5716 5716 5716 5716 5716 5717 5717
5730 5727 5724 5721 5718 5714 5711 5709 5706 5703 5700 5698 5697 5695 5693 5692 5691 5691 5691 5692 5693 5694 5695 5696 5698 5699 5700 5701 5702 5703 5704 5706 5707 5707 5708 5709 5709 5710 5710 5710 5710 5710 5711
5728 5725 5722 5719 5716 5713 5710 5707 5704 5701 5699 5697 5695 5693 5692 5690 5690 5689 5689 5689 5690 5691 5692 5693 5694 5695 5696 5696 5697 5698 5699 5700 5701 5702 5702 5703 5703 5704 5704 5704 5704 5704 5705
5726 5723 5720 5717 5714 5711 5708 5705 5703 5700 5698 5696 5694 5692 5690 5689 5688 5688 5687 5687 5688 5688 5689 5690 5690 5691 5692 5692 5693 5694 5694 5695 5696 5696 5697 5697 5697 5698 5698 5698 5699 5698 5698